<?xml version="1.0"?>
<gpx xmlns="http://www.topografix.com/GPX/1/1" xmlns:xsi="http://www.w3.org/2001/XMLSchema-instance" version="1.1" creator="GPX RubyGem 1.0.0 -- http://dougfales.github.io/gpx/" xsi:schemaLocation="http://www.topografix.com/GPX/1/1 http://www.topografix.com/GPX/1/1/gpx.xsd">
  <metadata>
    <name/>
    <time>2026-05-07T12:14:40+00:00</time>
    <bound minlat="90.0" minlon="180.0" maxlat="-90.0" maxlon="-180.0"/>
  </metadata>
  <trk>
    <name/>
    <trkseg>
      <trkpt lat="46.006275" lon="10.512315">
        <time>1970-01-01T00:00:00+00:00</time>
        <ele>1254.0</ele>
      </trkpt>
      <trkpt lat="46.006174" lon="10.512231">
        <time>1970-01-01T00:00:00+00:00</time>
        <ele>1257.0</ele>
      </trkpt>
      <trkpt lat="46.006059" lon="10.512203">
        <time>1970-01-01T00:00:00+00:00</time>
        <ele>1258.0</ele>
      </trkpt>
      <trkpt lat="46.006028" lon="10.51216">
        <time>1970-01-01T00:00:00+00:00</time>
        <ele>1259.0</ele>
      </trkpt>
      <trkpt lat="46.005815" lon="10.512049">
        <time>1970-01-01T00:00:00+00:00</time>
        <ele>1260.0</ele>
      </trkpt>
      <trkpt lat="46.005711" lon="10.511956">
        <time>1970-01-01T00:00:00+00:00</time>
        <ele>1261.0</ele>
      </trkpt>
      <trkpt lat="46.005494" lon="10.511834">
        <time>1970-01-01T00:00:00+00:00</time>
        <ele>1265.0</ele>
      </trkpt>
      <trkpt lat="46.005329" lon="10.511706">
        <time>1970-01-01T00:00:00+00:00</time>
        <ele>1269.0</ele>
      </trkpt>
      <trkpt lat="46.005148" lon="10.511686">
        <time>1970-01-01T00:00:00+00:00</time>
        <ele>1268.0</ele>
      </trkpt>
      <trkpt lat="46.004932" lon="10.511628">
        <time>1970-01-01T00:00:00+00:00</time>
        <ele>1269.0</ele>
      </trkpt>
      <trkpt lat="46.004786" lon="10.5115">
        <time>1970-01-01T00:00:00+00:00</time>
        <ele>1274.0</ele>
      </trkpt>
      <trkpt lat="46.004705" lon="10.511508">
        <time>1970-01-01T00:00:00+00:00</time>
        <ele>1272.0</ele>
      </trkpt>
      <trkpt lat="46.004608" lon="10.511599">
        <time>1970-01-01T00:00:00+00:00</time>
        <ele>1265.0</ele>
      </trkpt>
      <trkpt lat="46.004527" lon="10.511628">
        <time>1970-01-01T00:00:00+00:00</time>
        <ele>1261.0</ele>
      </trkpt>
      <trkpt lat="46.004435" lon="10.511595">
        <time>1970-01-01T00:00:00+00:00</time>
        <ele>1260.0</ele>
      </trkpt>
      <trkpt lat="46.003904" lon="10.511603">
        <time>1970-01-01T00:00:00+00:00</time>
        <ele>1256.0</ele>
      </trkpt>
      <trkpt lat="46.003804" lon="10.511565">
        <time>1970-01-01T00:00:00+00:00</time>
        <ele>1258.0</ele>
      </trkpt>
      <trkpt lat="46.003699" lon="10.511588">
        <time>1970-01-01T00:00:00+00:00</time>
        <ele>1258.0</ele>
      </trkpt>
      <trkpt lat="46.003504" lon="10.511503">
        <time>1970-01-01T00:00:00+00:00</time>
        <ele>1264.0</ele>
      </trkpt>
      <trkpt lat="46.003437" lon="10.511509">
        <time>1970-01-01T00:00:00+00:00</time>
        <ele>1265.0</ele>
      </trkpt>
      <trkpt lat="46.003372" lon="10.511512">
        <time>1970-01-01T00:00:00+00:00</time>
        <ele>1266.0</ele>
      </trkpt>
      <trkpt lat="46.003372" lon="10.511512">
        <time>1970-01-01T00:00:00+00:00</time>
        <ele>1266.0</ele>
      </trkpt>
      <trkpt lat="46.003437" lon="10.511509">
        <time>1970-01-01T00:00:00+00:00</time>
        <ele>1265.0</ele>
      </trkpt>
      <trkpt lat="46.003504" lon="10.511503">
        <time>1970-01-01T00:00:00+00:00</time>
        <ele>1264.0</ele>
      </trkpt>
      <trkpt lat="46.003699" lon="10.511588">
        <time>1970-01-01T00:00:00+00:00</time>
        <ele>1258.0</ele>
      </trkpt>
      <trkpt lat="46.003804" lon="10.511565">
        <time>1970-01-01T00:00:00+00:00</time>
        <ele>1258.0</ele>
      </trkpt>
      <trkpt lat="46.003904" lon="10.511603">
        <time>1970-01-01T00:00:00+00:00</time>
        <ele>1256.0</ele>
      </trkpt>
      <trkpt lat="46.004435" lon="10.511595">
        <time>1970-01-01T00:00:00+00:00</time>
        <ele>1260.0</ele>
      </trkpt>
      <trkpt lat="46.004527" lon="10.511628">
        <time>1970-01-01T00:00:00+00:00</time>
        <ele>1261.0</ele>
      </trkpt>
      <trkpt lat="46.004608" lon="10.511599">
        <time>1970-01-01T00:00:00+00:00</time>
        <ele>1265.0</ele>
      </trkpt>
      <trkpt lat="46.004705" lon="10.511508">
        <time>1970-01-01T00:00:00+00:00</time>
        <ele>1272.0</ele>
      </trkpt>
      <trkpt lat="46.004786" lon="10.5115">
        <time>1970-01-01T00:00:00+00:00</time>
        <ele>1274.0</ele>
      </trkpt>
      <trkpt lat="46.004932" lon="10.511628">
        <time>1970-01-01T00:00:00+00:00</time>
        <ele>1269.0</ele>
      </trkpt>
      <trkpt lat="46.005148" lon="10.511686">
        <time>1970-01-01T00:00:00+00:00</time>
        <ele>1268.0</ele>
      </trkpt>
      <trkpt lat="46.005329" lon="10.511706">
        <time>1970-01-01T00:00:00+00:00</time>
        <ele>1269.0</ele>
      </trkpt>
      <trkpt lat="46.005494" lon="10.511834">
        <time>1970-01-01T00:00:00+00:00</time>
        <ele>1265.0</ele>
      </trkpt>
      <trkpt lat="46.005711" lon="10.511956">
        <time>1970-01-01T00:00:00+00:00</time>
        <ele>1261.0</ele>
      </trkpt>
      <trkpt lat="46.005815" lon="10.512049">
        <time>1970-01-01T00:00:00+00:00</time>
        <ele>1260.0</ele>
      </trkpt>
      <trkpt lat="46.006028" lon="10.51216">
        <time>1970-01-01T00:00:00+00:00</time>
        <ele>1259.0</ele>
      </trkpt>
      <trkpt lat="46.006059" lon="10.512203">
        <time>1970-01-01T00:00:00+00:00</time>
        <ele>1258.0</ele>
      </trkpt>
      <trkpt lat="46.006174" lon="10.512231">
        <time>1970-01-01T00:00:00+00:00</time>
        <ele>1257.0</ele>
      </trkpt>
      <trkpt lat="46.006275" lon="10.512315">
        <time>1970-01-01T00:00:00+00:00</time>
        <ele>1254.0</ele>
      </trkpt>
    </trkseg>
  </trk>
</gpx>
